Location: Nelson
(41.2830°S, 173.2830°E)
Time: 08:49:51
(UTC+13:00)

Resurs 1-3 - Pass Details

Date: 24 January 2019
Orbit: 631 x 632 km, 98.0° (Epoch: 20 February)

Event Time Altitude Azimuth Distance (km) Brightness Sun altitude
Rises 21:49:00 0° 159° (SSE) 2,965 7.3 -9.4°
Reaches altitude 10° 21:51:23 10° 149° (SSE) 2,048 6.3 -9.8°
Maximum altitude 21:55:29 35° 83° (E) 1,036 4.3 -10.4°
Drops below altitude 10° 21:59:31 10° 16° (NNE) 2,021 5.7 -11.0°
Enters shadow 21:59:42 - 15° (NNE) 2,089 5.8 -11.1°
